Weather past 2 weeks in Willemstad, Curaçao

Now
79 °F

Passing clouds.


Feels Like: 82 °F
Forecast: 79 / 86 °F
Wind: 10 mph from Southeast

Location: Hato Airport - Curacao

Current Time: Mar 29, 2015 at 8:36:09 AM

Latest Report: Mar 29, 2015 at 7:00 AM


Visibility: N/A

Pressure: 29.98 "Hg

Humidity: 79%

Dew point: 72 °F

Location of WillemstadLocation

Historic Weather in Willemstad — Graph

°F

Willemstad temperature yesterday

Maximum temperature yesterday: 86 °F (at 12:00 PM)
Minimum temperature yesterday: 79 °F (at 12:00 AM)
Average temperature yesterday: 82 °F

Past Weeks' High & Low Weather Summary

 TemperatureHumidityPressure
High88 °F (Mar 16, 1:00 PM)89% (Mar 20, 3:00 AM)30.07 "Hg (Mar 20, 3:00 AM)
Low73 °F (Mar 22, 5:00 AM)55% (Mar 16, 1:00 PM)29.86 "Hg (Mar 16, 4:00 PM)
Average81 °F74%29.96 "Hg
* Reported Mar 14 7:00 AM — Mar 29 7:00 AM, Willemstad, Weather by CustomWeather, © 2015

Note: Actual official high and low records may vary slightly from our data, if they occured in-between our weather recording intervals... More about our weather records

Advertising

Willemstad weather history for previous 24 hours

 ConditionsComfort  
Time TempWeatherWind HumidityBarometerVisibility
7:00 AM
Sun, Mar 29
79 °FPassing clouds.10 mph79%29.98 "HgN/A
6:00 AM79 °FPassing clouds.15 mph79%29.98 "HgN/A
5:00 AM79 °FPassing clouds.14 mph74%29.95 "HgN/A
4:00 AM79 °FPassing clouds.14 mph79%29.95 "HgN/A
3:00 AM79 °FPassing clouds.15 mph84%29.95 "HgN/A
2:00 AM79 °FPassing clouds.15 mph79%29.98 "HgN/A
1:00 AM81 °FPassing clouds.14 mph79%29.98 "HgN/A
12:00 AM79 °FPassing clouds.12 mph84%30.01 "HgN/A
11:00 PM
Sat, Mar 28
81 °FPassing clouds.15 mph79%29.92 "HgN/A
10:00 PM81 °FPassing clouds.15 mph74%30.01 "HgN/A
9:00 PM81 °FPassing clouds.14 mph74%29.98 "HgN/A
8:00 PM81 °FPassing clouds.16 mph74%29.95 "HgN/A
7:00 PM81 °FPassing clouds.15 mph74%29.95 "HgN/A
6:00 PM82 °FPassing clouds.13 mph70%29.95 "HgN/A
5:00 PM84 °FScattered clouds.16 mph66%29.95 "HgN/A
4:00 PM86 °FScattered clouds.15 mph62%29.95 "HgN/A
3:00 PM86 °FScattered clouds.15 mph66%29.95 "HgN/A
2:00 PM86 °FScattered clouds.16 mph66%29.98 "HgN/A
1:00 PM86 °FScattered clouds.16 mph66%30.04 "HgN/A
12:00 PM86 °FScattered clouds.16 mph66%30.04 "HgN/A
11:00 AM84 °FScattered clouds.15 mph70%30.07 "HgN/A
10:00 AM79 °FBroken clouds.13 mph84%30.07 "HgN/A
9:00 AM79 °FSprinkles. Partly sunny.15 mph84%30.04 "HgN/A
8:00 AM81 °FScattered clouds.12 mph79%30.01 "HgN/A
Weather by CustomWeather, © 2015

See weather overviewHow to use our weather pages